TimeEST,TemperatureF,Dew PointF,Humidity,Sea Level PressureIn,VisibilityMPH,Wind Direction,Wind SpeedMPH,Gust SpeedMPH,PrecipitationIn,Events,Conditions,WindDirDegrees,DateUTC
12:54 AM,33.1,27.0,78,30.13,10.0,SW,3.5,-,N/A,,Overcast,220,2012-11-09 05:54:00
1:54 AM,34.0,27.0,75,30.14,10.0,Variable,4.6,-,N/A,,Overcast,0,2012-11-09 06:54:00
2:54 AM,35.1,28.9,78,30.14,10.0,Variable,4.6,-,N/A,,Overcast,0,2012-11-09 07:54:00
3:54 AM,36.0,30.0,79,30.15,10.0,WNW,8.1,-,N/A,,Overcast,300,2012-11-09 08:54:00
4:54 AM,37.0,30.0,76,30.17,10.0,West,5.8,-,N/A,,Overcast,280,2012-11-09 09:54:00
5:54 AM,34.0,28.9,82,30.19,10.0,SW,3.5,-,N/A,,Scattered Clouds,230,2012-11-09 10:54:00
6:26 AM,33.8,30.2,87,30.15,10.0,SW,4.6,-,N/A,,Mostly Cloudy,230,2012-11-09 11:26:00
6:54 AM,34.0,30.0,85,30.21,10.0,SW,5.8,-,N/A,,Overcast,230,2012-11-09 11:54:00
7:54 AM,35.1,30.9,85,30.23,10.0,SW,4.6,-,N/A,,Overcast,230,2012-11-09 12:54:00
8:54 AM,37.0,30.9,79,30.25,10.0,SW,6.9,-,N/A,,Overcast,230,2012-11-09 13:54:00
9:54 AM,42.1,32.0,67,30.24,10.0,West,5.8,-,N/A,,Mostly Cloudy,280,2012-11-09 14:54:00
10:23 AM,42.8,30.2,61,30.21,10.0,WNW,8.1,-,N/A,,Scattered Clouds,290,2012-11-09 15:23:00
10:54 AM,44.1,30.9,60,30.25,10.0,WNW,5.8,-,N/A,,Clear,300,2012-11-09 15:54:00
11:54 AM,46.9,30.9,54,30.23,10.0,West,8.1,-,N/A,,Scattered Clouds,280,2012-11-09 16:54:00
12:54 PM,48.0,30.9,52,30.20,10.0,West,6.9,-,N/A,,Mostly Cloudy,270,2012-11-09 17:54:00
1:54 PM,51.1,30.9,46,30.17,10.0,WSW,8.1,-,N/A,,Clear,250,2012-11-09 18:54:00
2:54 PM,50.0,32.0,50,30.18,10.0,West,8.1,-,N/A,,Partly Cloudy,260,2012-11-09 19:54:00
3:54 PM,48.9,32.0,52,30.17,10.0,West,6.9,-,N/A,,Clear,260,2012-11-09 20:54:00
4:54 PM,46.9,32.0,56,30.18,9.0,WSW,8.1,-,N/A,,Clear,250,2012-11-09 21:54:00
5:54 PM,45.0,32.0,60,30.20,10.0,WSW,3.5,-,N/A,,Scattered Clouds,240,2012-11-09 22:54:00
6:54 PM,44.1,32.0,63,30.20,10.0,WSW,3.5,-,N/A,,Clear,240,2012-11-09 23:54:00
7:54 PM,41.0,32.0,70,30.20,10.0,SW,3.5,-,N/A,,Clear,220,2012-11-10 00:54:00
8:54 PM,39.0,32.0,76,30.21,9.0,SW,3.5,-,N/A,,Clear,230,2012-11-10 01:54:00
9:54 PM,35.1,30.0,82,30.23,9.0,Calm,Calm,-,N/A,,Clear,0,2012-11-10 02:54:00
10:54 PM,33.1,30.0,89,30.24,9.0,North,4.6,-,N/A,,Clear,360,2012-11-10 03:54:00
11:54 PM,35.1,30.9,85,30.22,8.0,Calm,Calm,-,N/A,,Clear,0,2012-11-10 04:54:00